Flag for Israel Weather past 2 weeks in Petah Tikva, Israel

Now
86 °F

Passing clouds.


Feels Like: 86 °F
Forecast: 73 / 86 °F
Wind: 15 mph from Northwest

Location: Ben Gurion International Airport

Current Time: Sep 21, 2014 at 2:10:16 PM

Latest Report: Sep 21, 2014 at 1:20 PM


Visibility: N/A

Pressure: 29.86 "Hg

Humidity: 43%

Dew point: 61 °F

Location of Petah TikvaLocation

Historic Weather in Petah Tikva — Graph

°F

Petah Tikva temperature yesterday

Maximum temperature yesterday: 86 °F (at 3:20 PM)
Minimum temperature yesterday: 72 °F (at 6:20 AM)
Average temperature yesterday: 78 °F

Past Weeks' High & Low Weather Summary

 TemperatureHumidityPressure
High100 °F (Sep 17, 1:20 PM)83% (Sep 16, 4:20 AM)29.98 "Hg (Sep 16, 4:20 AM)
Low70 °F (Sep 17, 6:20 AM)20% (Sep 17, 10:50 AM)29.68 "Hg (Sep 17, 3:50 PM)
Average81 °F63%29.88 "Hg
* Reported Sep 6 12:20 PM — Sep 21 12:20 PM, Petah Tikva, Weather by CustomWeather, © 2014

Note: Actual official high and low records may vary slightly from our data, if they occured in-between our weather recording intervals... More about our weather records

Advertising

Petah Tikva weather history for previous 24 hours

 ConditionsComfort  
Time TempWeatherWind HumidityBarometerVisibility
12:20 PM
Sep 21
84 °FPassing clouds.12 mph48%29.89 "HgN/A
11:50 AM84 °FScattered clouds.10 mph51%29.89 "HgN/A
11:20 AM84 °FScattered clouds.10 mph51%29.89 "HgN/A
10:50 AM82 °FScattered clouds.9 mph55%29.89 "HgN/A
10:20 AM81 °FPartly sunny.13 mph62%29.92 "HgN/A
9:50 AM82 °FScattered clouds.3 mph55%29.92 "HgN/A
9:20 AM82 °FScattered clouds.2 mph58%29.89 "HgN/A
8:50 AM79 °FPassing clouds.5 mph65%29.89 "HgN/A
8:20 AM77 °FPassing clouds.5 mph69%29.89 "HgN/A
7:50 AM75 °FPassing clouds.5 mph69%29.89 "HgN/A
7:20 AM72 °FPassing clouds.3 mph78%29.89 "HgN/A
6:50 AM72 °FPassing clouds.3 mph78%29.89 "HgN/A
6:20 AM72 °FPassing clouds.3 mph78%29.89 "HgN/A
5:50 AM72 °FPassing clouds.3 mph78%29.89 "HgN/A
5:20 AM72 °FPassing clouds.3 mph78%29.86 "HgN/A
4:50 AM73 °FPassing clouds.5 mph74%29.86 "HgN/A
4:20 AM73 °FPassing clouds.5 mph74%29.86 "HgN/A
3:50 AM73 °FPassing clouds.3 mph74%29.86 "HgN/A
3:20 AM73 °FPassing clouds.2 mph69%29.86 "HgN/A
2:50 AM73 °FClear.2 mph69%29.86 "Hg10 mi
2:20 AM73 °FClear.5 mph74%29.89 "Hg10 mi
1:50 AM73 °FClear.6 mph74%29.89 "Hg10 mi
1:20 AM75 °FClear.5 mph69%29.89 "Hg10 mi
12:50 AM75 °FClear.1 mph69%29.89 "Hg10 mi
12:20 AM77 °FPassing clouds.3 mph65%29.89 "HgN/A
11:20 PM
Sep 20
79 °FPassing clouds.5 mph65%29.92 "HgN/A
10:50 PM79 °FPassing clouds.3 mph65%29.92 "HgN/A
10:20 PM79 °FPassing clouds.3 mph65%29.92 "HgN/A
9:50 PM79 °FPassing clouds.5 mph65%29.92 "HgN/A
9:20 PM79 °FPassing clouds.5 mph70%29.92 "HgN/A
8:50 PM79 °FPassing clouds.2 mph70%29.92 "HgN/A
4:20 PM84 °FPassing clouds.14 mph51%29.86 "HgN/A
3:50 PM84 °FPassing clouds.15 mph48%29.86 "HgN/A
3:20 PM86 °FPassing clouds.12 mph49%29.86 "HgN/A
2:50 PM84 °FScattered clouds.13 mph51%29.89 "HgN/A
2:20 PM84 °FScattered clouds.13 mph51%29.89 "HgN/A
Weather by CustomWeather, © 2014

See weather overviewHow to use our weather pages